Zurück zum Katalog

USA 40 R/B DEB

LostHEO
NORAD 23361·DEBRIS·🇺🇸 United States

Gestartet Aug 8, 1989 von Cape Canaveral Space Force Station

Loading…

Nächste Überflüge (nächste 24 Stunden)

TLE

VeraltetSource: Space-Track

Epoche: Jun 21, 2026, 02:52 UTC

1 23361U 89061AH  26172.12001269  .00001841  00000-0  95599-3 0  9992
2 23361  56.9835  78.1921 2694171 242.7290  87.4605  9.53974233 30702

Verfolge USA 40 R/B DEB in Echtzeit mit AllMySat

Download on the App Store